FW8367 Weather Reports


time (UTC)temp
C
wind
direction
speed
KPH
gust
KPH
rain 1hr
cm
rain 24hr
cm
rain mn
cm
humidity
%
barometer
mb
20260508025502 7 288 0.0 3.2 0.00 0.00 0.00 65 1007.7
20260508025001 7 288 0.0 0.0 0.00 0.00 0.00 64 1007.7
20260508024001 7 288 0.0 0.0 0.00 0.00 0.00 64 1007.8
20260508023501 7 288 0.0 0.0 0.00 0.00 0.00 65 1007.8
20260508023002 7 288 0.0 0.0 0.00 0.00 0.00 65 1007.8
20260508022001 8 288 1.6 3.2 0.00 0.00 0.00 63 1007.8
20260508021502 8 288 1.6 3.2 0.00 0.00 0.00 63 1007.9
20260508021002 8 288 1.6 3.2 0.00 0.00 0.00 62 1007.8
20260508020502 8 288 1.6 4.8 0.00 0.00 0.00 61 1007.8
20260508020005 8 288 3.2 4.8 0.00 0.00 0.00 61 1007.7
20260508015502 8 288 3.2 4.8 0.00 0.00 0.00 60 1007.7
20260508015001 8 288 1.6 4.8 0.00 0.00 0.00 60 1007.8
20260508014502 8 288 3.2 4.8 0.00 0.00 0.00 59 1007.8
20260508013502 8 300 1.6 4.8 0.00 0.00 0.00 59 1007.7
20260508013002 8 300 1.6 4.8 0.00 0.00 0.00 58 1007.7
20260508012002 8 300 1.6 3.2 0.00 0.00 0.00 58 1007.6
20260508011501 8 300 1.6 3.2 0.00 0.00 0.00 58 1007.6
20260508010501 8 300 1.6 3.2 0.00 0.00 0.00 58 1007.7
20260508010006 8 300 1.6 3.2 0.00 0.00 0.00 57 1007.7
20260508005501 8 300 1.6 3.2 0.00 0.00 0.00 57 1007.7
20260508005002 8 300 1.6 3.2 0.00 0.00 0.00 57 1007.6
20260508004502 8 300 1.6 4.8 0.00 0.00 0.00 57 1007.6
20260508004001 8 300 1.6 4.8 0.00 0.00 0.00 57 1007.4
20260508003502 8 300 1.6 3.2 0.00 0.00 0.00 56 1007.5
20260508003002 8 300 3.2 4.8 0.00 0.00 0.00 56 1007.3
20260508002502 9 300 1.6 4.8 0.00 0.00 0.00 56 1007.3
20260508002001 9 300 1.6 4.8 0.00 0.00 0.00 56 1007.2
20260508001503 9 300 3.2 4.8 0.00 0.00 0.00 55 1007.1
20260508001001 9 326 3.2 6.4 0.00 0.00 0.00 55 1007.1
20260508000502 9 328 4.8 11.3 0.00 0.00 0.00 54 1007.2
20260508000005 9 302 4.8 11.3 0.00 0.00 0.00 54 1007.2
20260507235502 10 322 6.4 12.9 0.00 0.00 0.00 53 1007.1
20260507235001 10 321 8.0 14.5 0.00 0.00 0.00 52 1007.1
20260507234501 10 339 8.0 14.5 0.00 0.00 0.00 51 1007.1
20260507234001 10 327 6.4 14.5 0.00 0.00 0.00 51 1007.0
20260507233501 10 288 6.4 12.9 0.00 0.00 0.00 51 1007.0
20260507233002 10 309 6.4 14.5 0.00 0.00 0.00 50 1007.1
20260507232501 10 298 8.0 16.1 0.00 0.00 0.00 50 1007.0
20260507232001 10 331 8.0 16.1 0.00 0.00 0.00 50 1007.0
20260507231502 10 284 9.7 22.5 0.00 0.00 0.00 49 1007.0
20260507231001 10 317 11.3 22.5 0.00 0.00 0.00 49 1007.0
20260507230501 10 324 11.3 20.9 0.00 0.00 0.00 48 1007.0
20260507230004 10 300 11.3 20.9 0.00 0.00 0.00 48 1007.0
20260507224502 10 286 9.7 19.3 0.00 0.00 0.00 48 1007.0
20260507223501 10 269 11.3 22.5 0.00 0.00 0.00 47 1006.9
20260507223002 10 302 11.3 20.9 0.00 0.00 0.00 47 1006.9
20260507222501 10 293 12.9 22.5 0.00 0.00 0.00 47 1007.0
20260507222001 10 276 12.9 22.5 0.00 0.00 0.00 47 1007.0
20260507221502 11 327 12.9 25.7 0.00 0.00 0.00 46 1006.8
20260507221001 11 297 12.9 27.4 0.00 0.00 0.00 45 1006.9
20260507220503 11 313 12.9 27.4 0.00 0.00 0.00 45 1006.9
20260507215002 11 318 14.5 22.5 0.00 0.00 0.00 48 1007.0
20260507213002 10 292 16.1 29.0 0.00 0.00 0.00 46 1006.9
20260507212502 11 259 16.1 29.0 0.00 0.00 0.00 46 1006.8
20260507212002 11 274 16.1 35.4 0.00 0.00 0.00 45 1006.7
20260507211502 11 275 16.1 35.4 0.00 0.00 0.00 45 1006.7
20260507210501 11 279 16.1 27.4 0.00 0.00 0.00 46 1006.8
20260507210005 10 300 16.1 30.6 0.00 0.00 0.00 45 1006.8
20260507205001 10 301 12.9 27.4 0.00 0.00 0.00 47 1006.8
20260507204001 10 240 20.9 32.2 0.00 0.00 0.00 48 1006.9
20260507203501 10 286 20.9 33.8 0.00 0.00 0.00 48 1006.9
20260507203002 10 325 22.5 35.4 0.00 0.00 0.00 47 1006.8
20260507202501 10 296 19.3 35.4 0.00 0.00 0.00 48 1006.8
20260507202002 10 296 16.1 35.4 0.00 0.00 0.00 51 1006.8
20260507201502 10 288 20.9 35.4 0.00 0.00 0.00 50 1006.8
20260507201001 10 269 22.5 37.0 0.00 0.00 0.00 48 1006.9
20260507200501 11 287 20.9 45.1 0.00 0.00 0.00 47 1006.8
20260507200004 11 284 22.5 45.1 0.00 0.00 0.00 44 1006.7
20260507195501 11 254 24.1 41.8 0.00 0.00 0.00 47 1006.8
20260507195001 10 250 20.9 41.8 0.00 0.00 0.00 47 1006.8
20260507194002 10 293 19.3 37.0 0.00 0.00 0.00 48 1006.8
20260507193501 10 267 17.7 33.8 0.00 0.00 0.00 50 1006.8
20260507193002 10 272 17.7 30.6 0.00 0.00 0.00 51 1006.9
20260507192501 10 270 17.7 30.6 0.00 0.00 0.00 51 1006.9
20260507192001 10 299 19.3 40.2 0.00 0.00 0.00 52 1006.8
20260507191502 11 334 20.9 45.1 0.00 0.00 0.00 48 1006.7
20260507191001 11 298 19.3 45.1 0.00 0.00 0.00 46 1006.6
20260507190502 11 292 19.3 38.6 0.00 0.00 0.00 47 1006.8
20260507190004 11 246 16.1 38.6 0.00 0.00 0.00 45 1006.8
20260507185500 11 250 16.1 33.8 0.00 0.00 0.00 49 1006.7
20260507185000 10 294 19.3 33.8 0.00 0.00 0.00 49 1006.8
20260507184501 11 263 19.3 30.6 0.00 0.00 0.00 49 1006.9
20260507183000 10 269 19.3 30.6 0.00 0.00 0.00 46 1006.9
20260507182501 10 223 20.9 41.8 0.00 0.00 0.00 47 1006.8
20260507182000 10 284 22.5 41.8 0.00 0.00 0.00 47 1006.9
20260507181000 10 256 16.1 45.1 0.00 0.00 0.00 45 1006.8
20260507180503 11 265 16.1 45.1 0.00 0.00 0.00 46 1006.7
20260507180006 11 277 19.3 38.6 0.00 0.00 0.00 46 1006.6
20260507175003 11 269 19.3 38.6 0.00 0.00 0.00 44 1006.6
20260507174503 11 248 19.3 45.1 0.00 0.00 0.00 45 1006.4
20260507174003 11 221 20.9 45.1 0.00 0.00 0.00 46 1006.5
20260507173503 10 305 22.5 43.5 0.00 0.00 0.00 45 1006.6
20260507173005 10 250 24.1 43.5 0.00 0.00 0.00 48 1006.6
20260507171504 10 269 17.7 29.0 0.00 0.00 0.00 49 1006.5
20260507171005 10 277 20.9 40.2 0.00 0.00 0.00 50 1006.7
20260507170503 10 271 22.5 45.1 0.00 0.00 0.00 49 1006.8
20260507170006 10 300 22.5 45.1 0.00 0.00 0.00 47 1006.8
20260507165503 11 253 20.9 40.2 0.00 0.00 0.00 48 1006.8
20260507164503 10 253 22.5 40.2 0.00 0.00 0.00 47 1006.8
20260507164003 10 275 24.1 51.5 0.00 0.00 0.00 48 1006.9
20260507163503 10 263 24.1 51.5 0.00 0.00 0.00 48 1006.9
20260507163003 10 300 22.5 45.1 0.00 0.00 0.00 49 1007.1
20260507162503 10 223 22.5 41.8 0.00 0.00 0.00 48 1006.9
20260507162003 10 281 20.9 41.8 0.00 0.00 0.00 47 1007.0
20260507161503 10 298 22.5 48.3 0.00 0.00 0.00 49 1007.1
20260507161003 10 281 25.7 48.3 0.00 0.00 0.00 50 1007.1
20260507160503 10 192 25.7 48.3 0.00 0.00 0.00 48 1007.1
20260507160005 10 255 25.7 46.7 0.00 0.00 0.00 48 1007.2
20260507155003 10 220 20.9 41.8 0.00 0.05 0.00 51 1007.1
20260507154503 10 261 20.9 41.8 0.00 0.05 0.00 50 1007.2
20260507154002 10 238 22.5 43.5 0.00 0.05 0.00 51 1007.1
20260507153504 10 269 24.1 43.5 0.00 0.05 0.00 52 1006.9
20260507153003 10 242 22.5 53.1 0.00 0.05 0.00 52 1006.9
20260507152503 10 284 20.9 53.1 0.00 0.05 0.00 54 1006.7
20260507152003 10 267 22.5 38.6 0.00 0.05 0.00 58 1007.0
20260507151504 9 211 20.9 38.6 0.00 0.05 0.00 57 1007.0
20260507151003 10 262 19.3 40.2 0.00 0.05 0.00 57 1006.9
20260507150503 9 236 19.3 35.4 0.00 0.05 0.00 58 1006.8
20260507150006 9 260 20.9 38.6 0.00 0.05 0.00 58 1006.8
20260507145503 9 248 20.9 38.6 0.00 0.18 0.00 58 1006.9
20260507144503 8 309 17.7 30.6 0.00 0.18 0.00 59 1006.9
20260507143503 8 244 19.3 40.2 0.00 0.18 0.00 59 1006.9
20260507143003 8 273 17.7 38.6 0.00 0.18 0.00 61 1007.1
20260507142503 8 267 19.3 32.2 0.00 0.18 0.00 59 1007.0
20260507142003 8 228 19.3 32.2 0.00 0.18 0.00 61 1007.1
20260507141503 8 286 17.7 30.6 0.00 0.18 0.00 60 1007.0
20260507141003 8 269 16.1 30.6 0.00 0.18 0.00 60 1007.0
20260507140503 8 224 16.1 30.6 0.00 0.18 0.00 60 1007.0
20260507140006 8 225 16.1 41.8 0.00 0.18 0.00 61 1007.0
20260507135503 8 307 17.7 41.8 0.00 0.33 0.00 61 1007.0
20260507135003 7 239 19.3 32.2 0.00 0.33 0.00 60 1007.0
20260507134503 7 292 19.3 40.2 0.00 0.33 0.00 60 1007.0
20260507134003 8 346 16.1 40.2 0.00 0.33 0.00 61 1007.0
20260507133503 8 270 14.5 32.2 0.00 0.33 0.00 62 1007.0
20260507133004 7 302 14.5 32.2 0.00 0.33 0.00 61 1006.9
20260507132503 7 220 16.1 32.2 0.00 0.33 0.00 62 1006.9
20260507132004 7 229 17.7 33.8 0.00 0.33 0.00 62 1007.0
20260507131504 7 220 19.3 33.8 0.00 0.33 0.00 62 1007.0
20260507131003 7 279 19.3 32.2 0.00 0.33 0.00 62 1007.1
20260507130503 7 239 16.1 29.0 0.00 0.33 0.00 61 1007.1
20260507125503 7 257 16.1 30.6 0.00 0.41 0.00 62 1007.0
20260507125003 7 300 14.5 29.0 0.00 0.41 0.00 63 1007.1
20260507124504 7 280 14.5 25.7 0.00 0.41 0.00 63 1007.2
20260507123503 7 296 17.7 30.6 0.00 0.41 0.00 63 1007.1
20260507123004 7 237 17.7 33.8 0.00 0.41 0.00 64 1007.1
20260507122503 7 269 14.5 33.8 0.00 0.41 0.00 63 1007.1
20260507122003 7 258 12.9 29.0 0.00 0.41 0.00 63 1007.2
20260507121503 7 228 14.5 22.5 0.00 0.41 0.00 64 1007.2
20260507121003 6 248 14.5 27.4 0.00 0.41 0.00 65 1007.2
20260507120503 6 234 14.5 27.4 0.00 0.41 0.00 65 1007.2
20260507120006 6 242 14.5 25.7 0.00 0.41 0.00 65 1007.2
20260507115003 6 246 16.1 29.0 0.00 0.48 0.00 67 1007.3
20260507114503 6 225 17.7 30.6 0.00 0.48 0.00 67 1007.2
20260507114003 6 224 12.9 30.6 0.00 0.48 0.00 67 1007.3
20260507113503 6 297 11.3 20.9 0.00 0.48 0.00 68 1007.3
20260507113006 6 212 12.9 29.0 0.00 0.48 0.00 69 1007.2
20260507112503 6 300 16.1 29.0 0.00 0.48 0.00 69 1007.1
20260507112004 6 267 14.5 24.1 0.00 0.48 0.00 70 1007.2
20260507111504 6 225 12.9 27.4 0.00 0.48 0.00 70 1007.2
20260507110503 6 242 14.5 25.7 0.00 0.48 0.00 70 1007.2
20260507110005 6 248 14.5 24.1 0.00 0.48 0.00 70 1007.1
20260507105503 6 237 16.1 24.1 0.00 0.56 0.00 71 1007.1
20260507105003 6 242 16.1 32.2 0.00 0.56 0.00 71 1006.9
20260507104504 6 229 14.5 32.2 0.00 0.56 0.00 72 1006.9
20260507104003 6 229 12.9 29.0 0.00 0.56 0.00 75 1006.8
20260507102503 6 240 11.3 19.3 0.00 0.56 0.00 77 1006.4
20260507102003 6 277 11.3 24.1 0.00 0.56 0.00 77 1006.2
20260507101503 6 229 9.7 24.1 0.00 0.56 0.00 78 1006.3
20260507101003 6 229 9.7 19.3 0.00 0.56 0.00 79 1006.2
20260507100503 6 211 9.7 17.7 0.00 0.56 0.00 79 1006.3
20260507100005 6 210 9.7 19.3 0.00 0.56 0.00 79 1006.2
20260507095504 7 250 9.7 19.3 0.00 0.58 0.00 81 1006.2
20260507094503 7 242 9.7 19.3 0.00 0.58 0.00 84 1006.3
20260507094004 7 239 9.7 19.3 0.00 0.58 0.00 84 1006.4
20260507093504 7 192 11.3 22.5 0.00 0.58 0.00 85 1006.4
20260507093004 7 231 12.9 24.1 0.00 0.58 0.00 85 1006.6
20260507092003 7 258 12.9 27.4 0.00 0.58 0.00 87 1006.4
20260507091003 7 214 9.7 25.7 0.00 0.58 0.00 88 1006.4
20260507090503 7 260 11.3 19.3 0.00 0.58 0.00 89 1006.3
20260507090006 7 199 9.7 19.3 0.00 0.58 0.00 89 1006.2
20260507085504 7 235 9.7 20.9 0.00 0.58 0.00 89 1006.3
20260507085003 7 233 11.3 22.5 0.00 0.58 0.00 89 1006.2
20260507084503 7 242 9.7 22.5 0.00 0.58 0.00 89 1006.2
20260507084003 7 210 11.3 22.5 0.00 0.58 0.00 89 1006.1
20260507083504 7 286 11.3 22.5 0.00 0.58 0.00 89 1006.1
20260507083004 7 228 9.7 17.7 0.00 0.58 0.00 89 1006.1
20260507082503 7 200 9.7 20.9 0.00 0.58 0.00 89 1006.1
20260507082003 7 201 9.7 20.9 0.00 0.58 0.00 89 1006.1
20260507081504 7 219 9.7 16.1 0.00 0.58 0.00 88 1006.1
20260507081002 7 190 8.0 16.1 0.00 0.58 0.00 88 1006.2
20260507080502 7 180 8.0 17.7 0.00 0.58 0.00 88 1006.2
20260507080005 7 199 9.7 19.3 0.00 0.58 0.00 88 1006.3
20260507075502 7 223 11.3 24.1 0.00 0.58 0.00 88 1006.3
20260507075002 7 234 11.3 24.1 0.00 0.58 0.00 88 1006.4
20260507074503 7 218 8.0 22.5 0.00 0.58 0.00 88 1006.4
20260507073003 7 223 8.0 22.5 0.00 0.58 0.00 87 1006.4
20260507072503 7 236 8.0 17.7 0.00 0.58 0.00 87 1006.5
20260507072002 7 225 8.0 17.7 0.00 0.58 0.00 88 1006.5
20260507071504 7 225 6.4 12.9 0.00 0.58 0.00 87 1006.4
20260507070503 7 198 6.4 14.5 0.00 0.58 0.00 87 1006.6
20260507070009 6 202 6.4 17.7 0.00 0.58 0.00 87 1006.6
20260507065002 6 221 6.4 14.5 0.00 0.58 0.00 87 1006.6
20260507063502 6 219 6.4 14.5 0.00 0.58 0.00 87 1006.7
20260507063002 6 231 6.4 12.9 0.00 0.58 0.00 87 1006.8
20260507062501 7 256 6.4 12.9 0.00 0.58 0.00 87 1006.7
20260507062002 6 174 6.4 11.3 0.00 0.58 0.00 87 1006.8
20260507061502 6 200 6.4 11.3 0.00 0.58 0.00 87 1006.8
20260507060501 7 166 4.8 8.0 0.00 0.58 0.00 86 1006.8
20260507060004 7 163 4.8 8.0 0.00 0.58 0.00 86 1006.8
20260507055002 7 193 4.8 9.7 0.00 0.58 0.00 86 1007.0
20260507054502 7 150 4.8 9.7 0.00 0.58 0.00 86 1007.0
20260507054002 7 159 4.8 8.0 0.00 0.58 0.00 86 1007.1
20260507053502 7 145 4.8 8.0 0.00 0.58 0.00 87 1007.1
20260507053002 7 160 4.8 6.4 0.00 0.58 0.00 87 1007.1
20260507052501 7 168 4.8 11.3 0.00 0.58 0.00 87 1007.1
20260507051502 6 146 3.2 6.4 0.00 0.58 0.00 87 1007.1
20260507051002 7 158 3.2 9.7 0.00 0.58 0.00 87 1007.2
20260507050502 7 162 4.8 11.3 0.00 0.58 0.00 87 1007.3
20260507050006 7 142 4.8 11.3 0.00 0.58 0.00 88 1007.3
20260507045504 6 150 4.8 8.0 0.00 0.58 0.00 88 1007.5
20260507045004 7 169 6.4 11.3 0.00 0.58 0.00 88 1007.6
20260507044505 7 135 6.4 11.3 0.00 0.58 0.00 88 1007.6
20260507044004 6 159 6.4 11.3 0.00 0.58 0.00 88 1007.7
20260507043504 6 140 4.8 9.7 0.00 0.58 0.00 88 1007.8
20260507043004 6 178 4.8 8.0 0.00 0.58 0.00 88 1007.8
20260507042504 6 163 4.8 8.0 0.00 0.58 0.00 88 1007.9
20260507042004 7 147 6.4 11.3 0.00 0.58 0.00 88 1007.9
20260507040504 7 180 4.8 9.7 0.00 0.58 0.00 88 1008.0
20260507040008 7 155 4.8 8.0 0.00 0.58 0.00 87 1008.0
20260507035504 7 152 4.8 8.0 0.00 0.58 0.58 87 1008.0
20260507035004 7 165 4.8 8.0 0.00 0.58 0.58 87 1008.1
20260507034505 7 176 4.8 8.0 0.00 0.58 0.58 87 1008.0
20260507034004 7 150 4.8 9.7 0.00 0.58 0.58 87 1008.1
20260507033505 7 187 4.8 11.3 0.00 0.58 0.58 87 1008.1
20260507032005 7 178 4.8 8.0 0.00 0.58 0.58 87 1008.2
20260507031504 7 156 4.8 9.7 0.00 0.58 0.58 86 1008.3
20260507030007 7 172 6.4 8.0 0.00 0.58 0.58 86 1008.3